This is the latest recevied weather packets stored in our database for station/object EA6AMI-5. If no packets are shown the sender has not sent any weather packets the latest 10 day(s).
| Time | Temp. | Humidity | Pressure | Rain* | Wind** | Luminosity | Snow |
|---|---|---|---|---|---|---|---|
| 1777424403 | 16.11° C | 47% | 1011.5 hPa | 0 mm | - | 0 W/m² | - |
| 1777424043 | 16.11° C | 45% | 1011.7 hPa | 0 mm | - | 0 W/m² | - |
| 1777423504 | 16.11° C | 47% | 1011.7 hPa | 0 mm | - | 0 W/m² | - |
| 1777422963 | 16.11° C | 45% | 1011.9 hPa | 0 mm | - | 0 W/m² | - |
| 1777422423 | 15.56° C | 47% | 1012 hPa | 0 mm | - | 0 W/m² | - |
| 1777421883 | 15.56° C | 53% | 1012.4 hPa | 0 mm | - | 0 W/m² | - |
| 1777421343 | 15.56° C | 54% | 1012.6 hPa | 0 mm | - | 0 W/m² | - |
| 1777420803 | 15.56° C | 53% | 1012.5 hPa | 0 mm | - | 0 W/m² | - |
| 1777420444 | 15.56° C | 53% | 1012.6 hPa | 0 mm | - | 0 W/m² | - |
| 1777419903 | 15.56° C | 55% | 1012.5 hPa | 0 mm | - | 0 W/m² | - |
| 1777419364 | 15° C | 57% | 1012.7 hPa | 0 mm | - | 0 W/m² | - |
| 1777418823 | 15° C | 58% | 1013 hPa | 0 mm | - | 0 W/m² | - |
| 1777418283 | 15.56° C | 60% | 1012.9 hPa | 0 mm | - | 0 W/m² | - |
| 1777417744 | 15.56° C | 60% | 1013 hPa | 0 mm | - | 0 W/m² | - |
| 1777417203 | 16.11° C | 63% | 1013.4 hPa | 0 mm | - | 0 W/m² | - |
| 1777416843 | 16.11° C | 63% | 1013.4 hPa | 0 mm | - | 0 W/m² | - |
| 1777416303 | 16.11° C | 62% | 1013.5 hPa | 0 mm | - | 0 W/m² | - |
| 1777415763 | 16.11° C | 58% | 1013.6 hPa | 0 mm | - | 0 W/m² | - |
| 1777415223 | 16.11° C | 56% | 1013.4 hPa | 0 mm | - | 0 W/m² | - |
| 1777414683 | 15.56° C | 60% | 1013.5 hPa | 0 mm | - | 0 W/m² | - |
| 1777414144 | 16.11° C | 61% | 1013.4 hPa | 0 mm | - | 0 W/m² | - |
| 1777413603 | 16.11° C | 59% | 1013.2 hPa | 0 mm | - | 0 W/m² | - |
| 1777413244 | 16.11° C | 59% | 1013.4 hPa | 0 mm | - | 0 W/m² | - |
| 1777412703 | 16.11° C | 52% | 1013.6 hPa | 0 mm | - | 0 W/m² | - |
| 1777412164 | 16.67° C | 44% | 1013.3 hPa | 0 mm | - | 0 W/m² | - |
* Rain latest hour (hover to see other rain measurements)
** Current wind speed in m/s (hover to see current wind gust speed)